Weather History for KIFP - October, 2011

Change the Weather History Date:

Saturday, October 22, 2011

  Actual Average Record
Temperature  
Mean Temperature 76 °F -  
Max Temperature 91 °F 80 °F 102 °F (2003)
Min Temperature 60 °F 61 °F 50 °F (1990)
Cooling Degree Days 10    
Growing Degree Days 26 (Base 50)    
Moisture  
Dew Point 32 °F    
Average Humidity 21    
Maximum Humidity 40    
Minimum Humidity 9    
Precipitation  
Precipitation 0.00 in - - ()
Sea Level Pressure  
Sea Level Pressure 30.00 in    
Wind  
Wind Speed 7 mph (North)    
Max Wind Speed 24 mph    
Max Gust Speed 29 mph    
Visibility 10 miles    
Events      
Averages and records for this station are not official NWS values.
T = Trace of Precipitation, MM = Missing Value Source: NWS Daily Summary

Daily Weather History Graph

Daily Weather History Graph

Search for Another Location

Airport or City:

Trip Planner

Search our weather history database for the weather conditions in past years. The results will help you decide how hot, cold, wet, or windy it might be!

Date:

Astronomy

Oct. 22, 2011 Rise Set
Actual Time 6:50 AM MST 5:54 PM MST
Civil Twilight 6:24 AM MST 6:20 PM MST
Nautical Twilight 5:54 AM MST 6:50 PM MST
Astronomical Twilight 5:25 AM MST 7:19 PM MST
Moon 2:02 AM MST (10/22) 3:06 PM MST (10/22)
Length of Visible Light 11h 56m
Length of Day
11h 04m
Waning Crescent, 22% of the Moon is Illuminated
Oct 22
Waning Crescent
Oct 26
New
Nov 2
First Quarter
Nov 10
Full
Nov 18
Last Quarter

Hourly Weather History & Observations

Time (MST) Temp. Dew Point Humidity Pressure Visibility Wind Dir Wind Speed Gust Speed Precip Events Conditions
12:15 AM 71.6 °F 32.0 °F 23% 30.02 in 10.0 mi Calm Calm - N/A   Clear
12:35 AM 69.8 °F 33.8 °F 27% 30.02 in 10.0 mi Calm Calm - N/A   Clear
12:55 AM 71.6 °F 32.0 °F 23% 30.02 in 10.0 mi NE 3.5 mph - N/A   Clear
1:15 AM 71.6 °F 32.0 °F 23% 30.02 in 10.0 mi Calm Calm - N/A   Clear
1:35 AM 68.0 °F 32.0 °F 26% 30.03 in 10.0 mi North 3.5 mph - N/A   Clear
1:55 AM 68.0 °F 39.2 °F 35% 30.03 in 10.0 mi NNE 5.8 mph - N/A   Clear
2:15 AM 68.0 °F 33.8 °F 28% 30.03 in 10.0 mi North 5.8 mph - N/A   Clear
2:35 AM 68.0 °F 32.0 °F 26% 30.02 in 10.0 mi Calm Calm - N/A   Clear
2:55 AM 68.0 °F 32.0 °F 26% 30.02 in 10.0 mi North 3.5 mph - N/A   Clear
3:35 AM 68.0 °F 39.2 °F 35% 30.02 in 10.0 mi NNE 4.6 mph - N/A   Clear
3:55 AM 66.2 °F 35.6 °F 32% 30.02 in 10.0 mi Calm Calm - N/A   Clear
4:55 AM 62.6 °F 37.4 °F 39% 30.04 in 10.0 mi Calm Calm - N/A   Clear
5:15 AM 60.8 °F 35.6 °F 39% 30.04 in 10.0 mi Calm Calm - N/A   Clear
5:35 AM 64.4 °F 35.6 °F 34% 30.04 in 10.0 mi Calm Calm - N/A   Clear
5:55 AM 62.6 °F 32.0 °F 32% 30.05 in 10.0 mi Calm Calm - N/A   Clear
6:15 AM 62.6 °F 35.6 °F 37% 30.05 in 10.0 mi Calm Calm - N/A   Clear
6:35 AM 62.6 °F 32.0 °F 32% 30.05 in 10.0 mi Calm Calm - N/A   Clear
6:55 AM 60.8 °F 33.8 °F 36% 30.05 in 10.0 mi Calm Calm - N/A   Clear
7:15 AM 62.6 °F 35.6 °F 37% 30.05 in 10.0 mi Calm Calm - N/A   Clear
7:35 AM 64.4 °F 37.4 °F 37% 30.05 in 10.0 mi Calm Calm - N/A   Clear
7:55 AM 64.4 °F 39.2 °F 40% 30.06 in 10.0 mi Calm Calm - N/A   Clear
8:35 AM 68.0 °F 39.2 °F 35% 30.06 in 10.0 mi Calm Calm - N/A   Clear
8:55 AM 68.0 °F 39.2 °F 35% 30.07 in 7.0 mi SW 3.5 mph - N/A   Clear
9:15 AM 68.0 °F 37.4 °F 33% 30.07 in 7.0 mi Calm Calm - N/A   Clear
9:35 AM 77.0 °F 32.0 °F 19% 30.07 in 10.0 mi NNE 12.7 mph - N/A   Clear
9:55 AM 78.8 °F 32.0 °F 18% 30.06 in 10.0 mi NNE 15.0 mph 19.6 mph N/A   Clear
10:15 AM 80.6 °F 32.0 °F 17% 30.06 in 10.0 mi North 17.3 mph 28.8 mph N/A   Clear
10:35 AM 80.6 °F 32.0 °F 17% 30.06 in 10.0 mi North 19.6 mph 27.6 mph N/A   Clear
11:15 AM 82.4 °F 32.0 °F 16% 30.04 in 10.0 mi NNE 24.2 mph 27.6 mph N/A   Clear
11:35 AM 84.2 °F 32.0 °F 15% 30.04 in 10.0 mi North 21.9 mph 27.6 mph N/A   Clear
11:55 AM 84.2 °F 32.0 °F 15% 30.03 in 10.0 mi North 20.7 mph 28.8 mph N/A   Clear
12:15 PM 86.0 °F 32.0 °F 14% 30.02 in 10.0 mi North 21.9 mph 27.6 mph N/A   Clear
12:35 PM 86.0 °F 32.0 °F 14% 30.01 in 10.0 mi North 21.9 mph 28.8 mph N/A   Clear
12:55 PM 87.8 °F 30.2 °F 13% 30.00 in 10.0 mi North 24.2 mph 27.6 mph N/A   Clear
1:15 PM 89.6 °F 30.2 °F 12% 29.99 in 10.0 mi North 20.7 mph 25.3 mph N/A   Clear
1:35 PM 89.6 °F 28.4 °F 11% 29.98 in 10.0 mi North 20.7 mph 26.5 mph N/A   Clear
1:55 PM 89.6 °F 26.6 °F 10% 29.97 in 10.0 mi North 19.6 mph 25.3 mph N/A   Clear
2:15 PM 91.4 °F 24.8 °F 9% 29.96 in 10.0 mi North 24.2 mph - N/A   Clear
2:35 PM 91.4 °F 26.6 °F 10% 29.95 in 10.0 mi North 20.7 mph - N/A   Clear
2:55 PM 91.4 °F 26.6 °F 10% 29.94 in 10.0 mi North 18.4 mph 23.0 mph N/A   Clear
3:15 PM 91.4 °F 28.4 °F 10% 29.94 in 10.0 mi North 18.4 mph - N/A   Clear
3:35 PM 91.4 °F 28.4 °F 10% 29.94 in 10.0 mi North 16.1 mph - N/A   Clear
3:55 PM 91.4 °F 28.4 °F 10% 29.93 in 10.0 mi North 17.3 mph - N/A   Clear
4:15 PM 91.4 °F 26.6 °F 10% 29.93 in 10.0 mi North 15.0 mph 20.7 mph N/A   Clear
4:35 PM 91.4 °F 26.6 °F 10% 29.92 in 10.0 mi North 16.1 mph - N/A   Clear
4:55 PM 89.6 °F 28.4 °F 11% 29.92 in 10.0 mi NNW 16.1 mph - N/A   Clear
5:15 PM 89.6 °F 28.4 °F 11% 29.92 in 10.0 mi North 15.0 mph 20.7 mph N/A   Clear
5:35 PM 89.6 °F 30.2 °F 12% 29.92 in 10.0 mi North 13.8 mph - N/A   Clear
5:55 PM 87.8 °F 32.0 °F 14% 29.92 in 10.0 mi North 13.8 mph - N/A   Clear
6:15 PM 86.0 °F 30.2 °F 13% 29.93 in 10.0 mi North 9.2 mph - N/A   Clear
6:55 PM 86.0 °F 32.0 °F 14% 29.93 in 10.0 mi North 15.0 mph - N/A   Clear
7:15 PM 86.0 °F 32.0 °F 14% 29.93 in 10.0 mi North 15.0 mph - N/A   Clear
7:35 PM 84.2 °F 30.2 °F 14% 29.93 in 10.0 mi NNE 13.8 mph - N/A   Clear
7:55 PM 84.2 °F 28.4 °F 13% 29.93 in 10.0 mi NNE 15.0 mph - N/A   Clear
8:15 PM 84.2 °F 28.4 °F 13% 29.93 in 10.0 mi NNE 13.8 mph - N/A   Clear
8:35 PM 84.2 °F 28.4 °F 13% 29.93 in 10.0 mi NNE 13.8 mph - N/A   Clear
9:15 PM 84.2 °F 28.4 °F 13% 29.94 in 10.0 mi North 13.8 mph - N/A   Clear
9:35 PM 84.2 °F 28.4 °F 13% 29.95 in 10.0 mi NNE 9.2 mph - N/A   Clear
9:55 PM 80.6 °F 28.4 °F 15% 29.95 in 10.0 mi NE 8.1 mph - N/A   Clear
10:15 PM 80.6 °F 30.2 °F 16% 29.95 in 10.0 mi NNE 8.1 mph - N/A   Clear
10:35 PM 80.6 °F 30.2 °F 16% 29.94 in 10.0 mi NNE 11.5 mph - N/A   Clear
10:55 PM 82.4 °F 30.2 °F 15% 29.94 in 10.0 mi North 8.1 mph - N/A   Clear
11:15 PM 80.6 °F 32.0 °F 17% 29.94 in 10.0 mi North 5.8 mph 18.4 mph N/A   Clear
11:35 PM 80.6 °F 30.2 °F 16% 29.95 in 10.0 mi North 6.9 mph - N/A   Clear
11:55 PM 80.6 °F 28.4 °F 15% 29.95 in 10.0 mi NE 6.9 mph - N/A   Clear